Year,Month,Day,Hour,Minute,Value (Times are PST for temperature in C)
2015,06,27,00,00,19.60
2015,06,27,00,01,19.60
2015,06,27,00,02,19.60
2015,06,27,00,03,19.60
2015,06,27,00,04,19.60
2015,06,27,00,05,19.50
2015,06,27,00,06,19.50
2015,06,27,00,07,19.50
2015,06,27,00,08,19.50
2015,06,27,00,09,19.40
2015,06,27,00,10,19.40
2015,06,27,00,11,19.40
2015,06,27,00,12,19.40
2015,06,27,00,13,19.40
2015,06,27,00,14,19.30
2015,06,27,00,15,19.30
2015,06,27,00,16,19.30
2015,06,27,00,17,19.30
2015,06,27,00,18,19.20
2015,06,27,00,19,19.20
2015,06,27,00,20,19.20
2015,06,27,00,21,19.10
2015,06,27,00,22,19.10
2015,06,27,00,23,19.10
2015,06,27,00,24,19.10
2015,06,27,00,25,19.00
2015,06,27,00,26,19.00
2015,06,27,00,27,18.90
2015,06,27,00,28,18.90
2015,06,27,00,29,18.90
2015,06,27,00,30,18.90
2015,06,27,00,31,18.90
2015,06,27,00,32,18.90
2015,06,27,00,33,18.80
2015,06,27,00,34,18.80
2015,06,27,00,35,18.80
2015,06,27,00,36,18.80
2015,06,27,00,37,18.80
2015,06,27,00,38,18.80
2015,06,27,00,39,18.80
2015,06,27,00,40,18.80
2015,06,27,00,41,18.70
2015,06,27,00,42,18.70
2015,06,27,00,43,18.70
2015,06,27,00,44,18.70
2015,06,27,00,45,18.70
2015,06,27,00,46,18.70
2015,06,27,00,47,18.60
2015,06,27,00,48,18.60
2015,06,27,00,49,18.60
2015,06,27,00,50,18.60
2015,06,27,00,51,18.60
2015,06,27,00,52,18.50
2015,06,27,00,53,18.50
2015,06,27,00,54,18.50
2015,06,27,00,55,18.50
2015,06,27,00,56,18.50
2015,06,27,00,57,18.40
2015,06,27,00,58,18.40
2015,06,27,00,59,18.40
2015,06,27,01,00,18.40
2015,06,27,01,01,18.40
2015,06,27,01,02,18.40
2015,06,27,01,03,18.40
2015,06,27,01,04,18.40
2015,06,27,01,05,18.40
2015,06,27,01,06,18.40
2015,06,27,01,07,18.30
2015,06,27,01,08,18.30
2015,06,27,01,09,18.30
2015,06,27,01,10,18.30
2015,06,27,01,11,18.30
2015,06,27,01,12,18.30
2015,06,27,01,13,18.30
2015,06,27,01,14,18.30
2015,06,27,01,15,18.30
2015,06,27,01,16,18.20
2015,06,27,01,17,18.20
2015,06,27,01,18,18.30
2015,06,27,01,19,18.30
2015,06,27,01,20,18.30
2015,06,27,01,21,18.30
2015,06,27,01,22,18.30
2015,06,27,01,23,18.30
2015,06,27,01,24,18.20
2015,06,27,01,25,18.20
2015,06,27,01,26,18.20
2015,06,27,01,27,18.20
2015,06,27,01,28,18.20
2015,06,27,01,29,18.20
2015,06,27,01,30,18.20
2015,06,27,01,31,18.20
2015,06,27,01,32,18.20
2015,06,27,01,33,18.20
2015,06,27,01,34,18.10
2015,06,27,01,35,18.10
2015,06,27,01,36,18.10
2015,06,27,01,37,18.10
2015,06,27,01,38,18.10
2015,06,27,01,39,18.00
2015,06,27,01,40,18.00
2015,06,27,01,41,18.00
2015,06,27,01,42,18.00
2015,06,27,01,43,18.00
2015,06,27,01,44,17.90
2015,06,27,01,45,17.90
2015,06,27,01,46,17.90
2015,06,27,01,47,17.90
2015,06,27,01,48,17.90
2015,06,27,01,49,17.80
2015,06,27,01,50,17.80
2015,06,27,01,51,17.80
2015,06,27,01,52,17.80
2015,06,27,01,53,17.80
2015,06,27,01,54,17.80
2015,06,27,01,55,17.80
2015,06,27,01,56,17.80
2015,06,27,01,57,17.80
2015,06,27,01,58,17.80
2015,06,27,01,59,17.80
2015,06,27,02,00,17.80
2015,06,27,02,01,17.80
2015,06,27,02,02,17.80
2015,06,27,02,03,17.80
2015,06,27,02,04,17.70
2015,06,27,02,05,17.70
2015,06,27,02,06,17.70
2015,06,27,02,07,17.70
2015,06,27,02,08,17.70
2015,06,27,02,09,17.70
2015,06,27,02,10,17.70
2015,06,27,02,11,17.70
2015,06,27,02,12,17.70
2015,06,27,02,13,17.70
2015,06,27,02,14,17.70
2015,06,27,02,15,17.70
2015,06,27,02,16,17.70
2015,06,27,02,17,17.70
2015,06,27,02,18,17.70
2015,06,27,02,19,17.70
2015,06,27,02,20,17.70
2015,06,27,02,21,17.70
2015,06,27,02,22,17.70
2015,06,27,02,23,17.70
2015,06,27,02,24,17.70
2015,06,27,02,25,17.70
2015,06,27,02,26,17.70
2015,06,27,02,27,17.70
2015,06,27,02,28,17.70
2015,06,27,02,29,17.60
2015,06,27,02,30,17.60
2015,06,27,02,31,17.60
2015,06,27,02,32,17.60
2015,06,27,02,33,17.60
2015,06,27,02,34,17.60
2015,06,27,02,35,17.60
2015,06,27,02,36,17.60
2015,06,27,02,37,17.50
2015,06,27,02,38,17.50
2015,06,27,02,39,17.50
2015,06,27,02,40,17.50
2015,06,27,02,41,17.50
2015,06,27,02,42,17.50
2015,06,27,02,43,17.50
2015,06,27,02,44,17.50
2015,06,27,02,45,17.50
2015,06,27,02,46,17.50
2015,06,27,02,47,17.40
2015,06,27,02,48,17.40
2015,06,27,02,49,17.40
2015,06,27,02,50,17.40
2015,06,27,02,51,17.40
2015,06,27,02,52,17.40
2015,06,27,02,53,17.30
2015,06,27,02,54,17.30
2015,06,27,02,55,17.30
2015,06,27,02,56,17.30
2015,06,27,02,57,17.30
2015,06,27,02,58,17.30
2015,06,27,02,59,17.30
2015,06,27,03,00,17.30
2015,06,27,03,01,17.30
2015,06,27,03,02,17.30
2015,06,27,03,03,17.30
2015,06,27,04,02,16.70
2015,06,27,04,03,16.70
2015,06,27,04,04,16.70
2015,06,27,04,05,16.80
2015,06,27,04,06,16.80
2015,06,27,04,07,16.80
2015,06,27,04,08,16.80
2015,06,27,04,09,16.80
2015,06,27,04,10,16.80
2015,06,27,04,11,16.90
2015,06,27,04,12,16.90
2015,06,27,04,13,16.90
2015,06,27,04,14,16.90
2015,06,27,04,15,16.90
2015,06,27,04,16,16.90
2015,06,27,04,17,16.90
2015,06,27,04,18,16.90
2015,06,27,04,19,16.90
2015,06,27,04,20,17.00
2015,06,27,04,21,17.00
2015,06,27,04,22,17.00
2015,06,27,04,23,17.00
2015,06,27,04,24,16.90
2015,06,27,04,25,16.90
2015,06,27,04,26,16.90
2015,06,27,04,27,16.90
2015,06,27,04,28,16.90
2015,06,27,04,29,16.90
2015,06,27,04,30,16.90
2015,06,27,04,31,16.90
2015,06,27,04,32,16.90
2015,06,27,04,33,16.90
2015,06,27,04,34,16.90
2015,06,27,04,35,16.90
2015,06,27,04,36,16.90
2015,06,27,04,37,16.90
2015,06,27,04,38,16.90
2015,06,27,04,39,16.90
2015,06,27,04,40,16.90
2015,06,27,04,41,16.90
2015,06,27,04,42,16.90
2015,06,27,04,43,16.90
2015,06,27,04,44,16.90
2015,06,27,04,45,16.90
2015,06,27,04,46,16.90
2015,06,27,04,47,16.90
2015,06,27,04,48,16.90
2015,06,27,04,49,16.90
2015,06,27,04,50,16.90
2015,06,27,04,51,16.90
2015,06,27,04,52,16.90
2015,06,27,04,53,16.90
2015,06,27,04,54,16.90
2015,06,27,04,55,16.90
2015,06,27,04,56,16.90
2015,06,27,04,57,16.90
2015,06,27,04,58,16.90
2015,06,27,04,59,16.90
2015,06,27,05,00,16.90
2015,06,27,05,01,16.90
2015,06,27,05,02,16.90
2015,06,27,05,03,16.80
2015,06,27,05,04,16.90
2015,06,27,05,05,16.80
2015,06,27,05,06,16.80
2015,06,27,05,07,16.80
2015,06,27,05,08,16.80
2015,06,27,05,09,16.80
2015,06,27,05,10,16.80
2015,06,27,05,11,16.80
2015,06,27,05,12,16.80
2015,06,27,05,13,16.80
2015,06,27,05,14,16.80
2015,06,27,05,15,16.80
2015,06,27,05,16,16.80
2015,06,27,05,17,16.80
2015,06,27,05,18,16.70
2015,06,27,05,19,16.70
2015,06,27,05,20,16.70
2015,06,27,05,21,16.70
2015,06,27,05,22,16.70
2015,06,27,05,23,16.70
2015,06,27,05,24,16.70
2015,06,27,05,25,16.70
2015,06,27,05,26,16.70
2015,06,27,05,27,16.70
2015,06,27,05,28,16.60
2015,06,27,05,29,16.60
2015,06,27,05,30,16.60
2015,06,27,05,31,16.60
2015,06,27,05,32,16.60
2015,06,27,05,33,16.60
2015,06,27,05,34,16.60
2015,06,27,05,35,16.60
2015,06,27,05,36,16.60
2015,06,27,05,37,16.60
2015,06,27,05,38,16.60
2015,06,27,05,39,16.60
2015,06,27,05,40,16.60
2015,06,27,05,41,16.50
2015,06,27,05,42,16.50
2015,06,27,05,43,16.50
2015,06,27,05,44,16.40
2015,06,27,05,45,16.40
2015,06,27,05,46,16.40
2015,06,27,05,47,16.40
2015,06,27,05,48,16.40
2015,06,27,05,49,16.30
2015,06,27,05,50,16.30
2015,06,27,05,51,16.30
2015,06,27,05,52,16.30
2015,06,27,05,53,16.30
2015,06,27,05,54,16.20
2015,06,27,05,55,16.20
2015,06,27,05,56,16.20
2015,06,27,05,57,16.20
2015,06,27,05,58,16.20
2015,06,27,05,59,16.20
2015,06,27,06,00,16.20
2015,06,27,06,01,16.20
2015,06,27,06,02,16.20
2015,06,27,06,03,16.20
2015,06,27,06,04,16.20
2015,06,27,06,05,16.20
2015,06,27,06,06,16.20
2015,06,27,06,07,16.20
2015,06,27,06,08,16.20
2015,06,27,06,09,16.20
2015,06,27,06,10,16.20
2015,06,27,06,11,16.30
2015,06,27,06,12,16.30
2015,06,27,06,13,16.30
2015,06,27,06,14,16.30
2015,06,27,06,15,16.30
2015,06,27,06,16,16.40
2015,06,27,06,17,16.40
2015,06,27,06,18,16.40
2015,06,27,06,19,16.50
2015,06,27,06,20,16.50
2015,06,27,06,21,16.50
2015,06,27,06,22,16.50
2015,06,27,06,23,16.60
2015,06,27,06,24,16.60
2015,06,27,06,25,16.60
2015,06,27,06,26,16.60
2015,06,27,06,27,16.60
2015,06,27,06,28,16.60
2015,06,27,06,29,16.60
2015,06,27,06,30,16.70
2015,06,27,06,31,16.70
2015,06,27,06,32,16.70
2015,06,27,06,33,16.70
2015,06,27,06,34,16.70
2015,06,27,06,35,16.70
2015,06,27,06,36,16.80
2015,06,27,06,37,16.80
2015,06,27,06,38,16.80
2015,06,27,06,39,16.80
2015,06,27,06,40,16.80
2015,06,27,06,41,16.80
2015,06,27,06,42,16.80
2015,06,27,06,43,16.90
2015,06,27,06,44,16.90
2015,06,27,06,45,16.90
2015,06,27,06,46,16.90
2015,06,27,06,47,16.90
2015,06,27,06,48,16.90
2015,06,27,06,49,16.90
2015,06,27,06,50,16.90
2015,06,27,06,51,17.00
2015,06,27,06,52,17.00
2015,06,27,06,53,17.00
2015,06,27,06,54,17.00
2015,06,27,06,55,17.00
2015,06,27,06,56,17.10
2015,06,27,06,57,17.10
2015,06,27,06,58,17.10
2015,06,27,06,59,17.10
2015,06,27,07,00,17.10
2015,06,27,07,01,17.10
2015,06,27,07,02,17.10
2015,06,27,07,03,17.00
2015,06,27,07,04,17.00
2015,06,27,07,05,17.00
2015,06,27,07,06,17.00
2015,06,27,07,07,17.00
2015,06,27,07,08,17.10
2015,06,27,07,09,17.10
2015,06,27,07,10,17.10
2015,06,27,07,11,17.20
2015,06,27,07,12,17.20
2015,06,27,07,13,17.20
2015,06,27,07,14,17.30
2015,06,27,07,15,17.30
2015,06,27,07,16,17.30
2015,06,27,07,17,17.30
2015,06,27,07,18,17.30
2015,06,27,07,19,17.30
2015,06,27,07,20,17.30
2015,06,27,07,21,17.40
2015,06,27,07,22,17.40
2015,06,27,07,23,17.50
2015,06,27,07,24,17.50
2015,06,27,07,25,17.60
2015,06,27,07,26,17.60
2015,06,27,07,27,17.60
2015,06,27,07,28,17.70
2015,06,27,07,29,17.70
2015,06,27,07,30,17.70
2015,06,27,07,31,17.70
2015,06,27,07,32,17.80
2015,06,27,07,33,17.80
2015,06,27,07,34,17.80
2015,06,27,07,35,17.90
2015,06,27,07,36,17.90
2015,06,27,07,37,17.90
2015,06,27,07,38,18.00
2015,06,27,07,39,18.00
2015,06,27,07,40,18.10
2015,06,27,07,41,18.10
2015,06,27,07,42,18.20
2015,06,27,07,43,18.20
2015,06,27,07,44,18.20
2015,06,27,07,45,18.30
2015,06,27,07,46,18.30
2015,06,27,07,47,18.40
2015,06,27,07,48,18.40
2015,06,27,07,49,18.40
2015,06,27,07,50,18.50
2015,06,27,07,51,18.60
2015,06,27,07,52,18.60
2015,06,27,07,53,18.70
2015,06,27,07,54,18.70
2015,06,27,07,55,18.70
2015,06,27,07,56,18.70
2015,06,27,07,57,18.70
2015,06,27,07,58,18.70
2015,06,27,07,59,18.70
2015,06,27,08,00,18.70
2015,06,27,08,01,18.70
2015,06,27,08,02,18.80
2015,06,27,08,03,18.80
2015,06,27,08,04,18.80
2015,06,27,08,05,18.90
2015,06,27,08,06,18.90
2015,06,27,08,07,19.00
2015,06,27,08,08,19.00
2015,06,27,08,09,19.00
2015,06,27,08,10,19.00
2015,06,27,08,11,19.00
2015,06,27,08,12,18.90
2015,06,27,08,13,18.90
2015,06,27,08,14,18.90
2015,06,27,08,15,18.90
2015,06,27,08,16,18.90
2015,06,27,08,17,18.80
2015,06,27,08,18,18.80
2015,06,27,08,19,18.80
2015,06,27,08,20,18.80
2015,06,27,08,21,18.80
2015,06,27,08,22,18.80
2015,06,27,08,23,18.80
2015,06,27,08,24,18.80
2015,06,27,08,25,18.90
2015,06,27,08,26,19.00
2015,06,27,08,27,19.00
2015,06,27,08,28,19.10
2015,06,27,08,29,19.20
2015,06,27,08,30,19.20
2015,06,27,08,31,19.30
2015,06,27,08,32,19.30
2015,06,27,08,33,19.30
2015,06,27,08,34,19.30
2015,06,27,08,35,19.30
2015,06,27,08,36,19.40
2015,06,27,08,37,19.40
2015,06,27,08,38,19.40
2015,06,27,08,39,19.50
2015,06,27,08,40,19.50
2015,06,27,08,41,19.50
2015,06,27,08,42,19.50
2015,06,27,08,43,19.40
2015,06,27,08,44,19.50
2015,06,27,08,45,19.50
2015,06,27,08,46,19.50
2015,06,27,08,47,19.50
2015,06,27,08,48,19.50
2015,06,27,08,49,19.50
2015,06,27,08,50,19.40
2015,06,27,08,51,19.40
2015,06,27,08,52,19.50
2015,06,27,08,53,19.40
2015,06,27,08,54,19.40
2015,06,27,08,55,19.50
2015,06,27,08,56,19.50
2015,06,27,08,57,19.60
2015,06,27,08,58,19.60
2015,06,27,08,59,19.60
2015,06,27,09,00,19.70
2015,06,27,09,01,19.80
2015,06,27,09,02,19.90
2015,06,27,09,03,20.00
2015,06,27,09,04,20.10
2015,06,27,09,05,20.20
2015,06,27,09,06,20.30
2015,06,27,09,07,20.30
2015,06,27,09,08,20.40
2015,06,27,09,09,20.60
2015,06,27,09,10,20.70
2015,06,27,09,11,20.80
2015,06,27,09,12,20.90
2015,06,27,09,13,20.90
2015,06,27,09,14,20.90
2015,06,27,09,15,21.00
2015,06,27,09,16,21.00
2015,06,27,09,17,21.00
2015,06,27,09,18,21.10
2015,06,27,09,19,21.10
2015,06,27,09,20,21.20
2015,06,27,09,21,21.30
2015,06,27,09,22,21.30
2015,06,27,09,23,21.40
2015,06,27,09,24,21.40
2015,06,27,09,25,21.30
2015,06,27,09,26,21.30
2015,06,27,09,27,21.30
2015,06,27,09,28,21.30
2015,06,27,09,29,21.30
2015,06,27,09,30,21.30
2015,06,27,09,31,21.40
2015,06,27,09,32,21.40
2015,06,27,09,33,21.40
2015,06,27,09,34,21.40
2015,06,27,09,35,21.40
2015,06,27,09,36,21.40
2015,06,27,09,37,21.50
2015,06,27,09,38,21.50
2015,06,27,09,39,21.50
2015,06,27,09,40,21.50
2015,06,27,09,41,21.60
2015,06,27,09,42,21.60
2015,06,27,09,43,21.70
2015,06,27,09,44,21.80
2015,06,27,09,45,21.90
2015,06,27,09,46,21.90
2015,06,27,09,47,21.90
2015,06,27,09,48,21.90
2015,06,27,09,49,21.90
2015,06,27,09,50,21.90
2015,06,27,09,51,21.90
2015,06,27,09,52,22.00
2015,06,27,09,53,22.00
2015,06,27,09,54,22.10
2015,06,27,09,55,22.10
2015,06,27,09,56,22.10
2015,06,27,09,57,22.10
2015,06,27,09,58,22.10
2015,06,27,09,59,22.20
2015,06,27,10,00,22.20
2015,06,27,10,01,22.20
2015,06,27,10,02,22.20
2015,06,27,10,03,22.30
2015,06,27,10,04,22.30
2015,06,27,10,05,22.30
2015,06,27,10,06,22.40
2015,06,27,10,07,22.40
2015,06,27,10,08,22.40
2015,06,27,10,09,22.40
2015,06,27,10,10,22.40
2015,06,27,10,11,22.40
2015,06,27,10,12,22.40
2015,06,27,10,13,22.30
2015,06,27,10,14,22.30
2015,06,27,10,15,22.30
2015,06,27,10,16,22.40
2015,06,27,10,17,22.50
2015,06,27,10,18,22.60
2015,06,27,10,19,22.60
2015,06,27,10,20,22.60
2015,06,27,10,21,22.70
2015,06,27,10,22,22.80
2015,06,27,10,23,22.80
2015,06,27,10,24,22.80
2015,06,27,10,25,22.80
2015,06,27,10,26,22.80
2015,06,27,10,27,22.80
2015,06,27,10,28,22.80
2015,06,27,10,29,22.80
2015,06,27,10,30,22.90
2015,06,27,10,31,22.90
2015,06,27,10,32,23.00
2015,06,27,10,33,23.00
2015,06,27,10,34,23.10
2015,06,27,10,35,23.10
2015,06,27,10,36,23.20
2015,06,27,10,37,23.30
2015,06,27,10,38,23.40
2015,06,27,10,39,23.40
2015,06,27,10,40,23.30
2015,06,27,10,41,23.30
2015,06,27,10,42,23.40
2015,06,27,10,43,23.40
2015,06,27,10,44,23.50
2015,06,27,10,45,23.60
2015,06,27,10,46,23.70
2015,06,27,10,47,23.80
2015,06,27,10,48,23.80
2015,06,27,10,49,23.90
2015,06,27,10,50,24.00
2015,06,27,10,51,24.10
2015,06,27,10,52,24.20
2015,06,27,10,53,24.20
2015,06,27,10,54,24.20
2015,06,27,10,55,24.20
2015,06,27,10,56,24.20
2015,06,27,10,57,24.30
2015,06,27,10,58,24.30
2015,06,27,10,59,24.40
2015,06,27,11,00,24.40
2015,06,27,11,01,24.40
2015,06,27,11,02,24.40
2015,06,27,11,03,24.50
2015,06,27,11,04,24.50
2015,06,27,11,05,24.60
2015,06,27,11,06,24.70
2015,06,27,11,07,24.70
2015,06,27,11,08,24.80
2015,06,27,11,09,24.90
2015,06,27,11,10,24.90
2015,06,27,11,11,24.90
2015,06,27,11,12,24.90
2015,06,27,11,13,24.90
2015,06,27,11,14,25.10
2015,06,27,11,15,25.20
2015,06,27,11,16,25.30
2015,06,27,11,17,25.50
2015,06,27,11,18,25.60
2015,06,27,11,19,25.60
2015,06,27,11,20,25.60
2015,06,27,11,21,25.50
2015,06,27,11,22,25.30
2015,06,27,11,23,25.20
2015,06,27,11,24,25.20
2015,06,27,11,25,25.20
2015,06,27,11,26,25.30
2015,06,27,11,27,25.30
2015,06,27,11,28,25.20
2015,06,27,11,29,25.20
2015,06,27,11,30,25.30
2015,06,27,11,31,25.20
2015,06,27,11,32,25.20
2015,06,27,11,33,25.10
2015,06,27,11,34,25.00
2015,06,27,11,35,25.00
2015,06,27,11,36,25.00
2015,06,27,11,37,24.90
2015,06,27,11,38,24.80
2015,06,27,11,39,24.70
2015,06,27,11,40,24.60
2015,06,27,11,41,24.70
2015,06,27,11,42,24.70
2015,06,27,11,43,24.80
2015,06,27,11,44,24.90
2015,06,27,11,45,24.90
2015,06,27,11,46,25.00
2015,06,27,11,47,25.00
2015,06,27,11,48,25.10
2015,06,27,11,49,25.00
2015,06,27,11,50,25.10
2015,06,27,11,51,25.10
2015,06,27,11,52,25.10
2015,06,27,11,53,25.20
2015,06,27,11,54,25.30
2015,06,27,11,55,25.40
2015,06,27,11,56,25.50
2015,06,27,11,57,25.50
2015,06,27,11,58,25.60
2015,06,27,11,59,25.70
2015,06,27,12,00,25.80
2015,06,27,12,01,25.80
2015,06,27,12,02,25.90
2015,06,27,12,03,25.90
2015,06,27,12,04,25.80
2015,06,27,12,05,25.70
2015,06,27,12,06,25.70
2015,06,27,12,07,25.70
2015,06,27,12,08,25.80
2015,06,27,12,09,25.80
2015,06,27,12,10,25.90
2015,06,27,12,11,25.90
2015,06,27,12,12,25.80
2015,06,27,12,13,25.70
2015,06,27,12,14,25.70
2015,06,27,12,15,25.80
2015,06,27,12,16,25.80
2015,06,27,12,17,25.80
2015,06,27,12,18,25.90
2015,06,27,12,19,25.90
2015,06,27,12,20,25.90
2015,06,27,12,21,26.00
2015,06,27,12,22,26.10
2015,06,27,12,23,26.10
2015,06,27,12,24,26.20
2015,06,27,12,25,26.20
2015,06,27,12,26,26.10
2015,06,27,12,27,26.10
2015,06,27,12,28,26.10
2015,06,27,12,29,26.10
2015,06,27,12,30,26.10
2015,06,27,12,31,26.20
2015,06,27,12,32,26.30
2015,06,27,12,33,26.30
2015,06,27,12,34,26.30
2015,06,27,12,35,26.40
2015,06,27,12,36,26.40
2015,06,27,12,37,26.40
2015,06,27,12,38,26.50
2015,06,27,12,39,26.60
2015,06,27,12,40,26.60
2015,06,27,12,41,26.60
2015,06,27,12,42,26.60
2015,06,27,12,43,26.70
2015,06,27,12,44,26.80
2015,06,27,12,45,26.80
2015,06,27,12,46,26.90
2015,06,27,12,47,27.00
2015,06,27,12,48,27.10
2015,06,27,12,49,27.10
2015,06,27,12,50,27.10
2015,06,27,12,51,27.20
2015,06,27,12,52,27.30
2015,06,27,12,53,27.40
2015,06,27,12,54,27.50
2015,06,27,12,55,27.50
2015,06,27,12,56,27.60
2015,06,27,12,57,27.60
2015,06,27,12,58,27.60
2015,06,27,12,59,27.60
2015,06,27,13,00,27.60
2015,06,27,13,01,27.70
2015,06,27,13,02,27.70
2015,06,27,13,03,27.70
2015,06,27,13,04,27.80
2015,06,27,13,05,27.80
2015,06,27,13,06,27.80
2015,06,27,13,07,27.70
2015,06,27,13,08,27.70
2015,06,27,13,09,27.70
2015,06,27,13,10,27.70
2015,06,27,13,11,27.70
2015,06,27,13,12,27.70
2015,06,27,13,13,27.60
2015,06,27,13,14,27.60
2015,06,27,13,15,27.60
2015,06,27,13,16,27.60
2015,06,27,13,17,27.60
2015,06,27,13,18,27.60
2015,06,27,13,19,27.50
2015,06,27,13,20,27.50
2015,06,27,13,21,27.50
2015,06,27,13,22,27.50
2015,06,27,13,23,27.60
2015,06,27,13,24,27.70
2015,06,27,13,25,27.90
2015,06,27,13,26,28.00
2015,06,27,13,27,28.10
2015,06,27,13,28,28.20
2015,06,27,13,29,28.30
2015,06,27,13,30,28.30
2015,06,27,13,31,28.40
2015,06,27,13,32,28.50
2015,06,27,13,33,28.60
2015,06,27,13,34,28.70
2015,06,27,13,35,28.70
2015,06,27,13,36,28.80
2015,06,27,13,37,28.80
2015,06,27,13,38,28.80
2015,06,27,13,39,28.80
2015,06,27,13,40,28.80
2015,06,27,13,41,28.80
2015,06,27,13,42,28.90
2015,06,27,13,43,28.90
2015,06,27,13,44,29.00
2015,06,27,13,45,29.10
2015,06,27,13,46,29.10
2015,06,27,13,47,29.20
2015,06,27,13,48,29.20
2015,06,27,13,49,29.30
2015,06,27,13,50,29.40
2015,06,27,13,51,29.40
2015,06,27,13,52,29.50
2015,06,27,13,53,29.50
2015,06,27,13,54,29.50
2015,06,27,13,55,29.60
2015,06,27,13,56,29.60
2015,06,27,13,57,29.70
2015,06,27,13,58,29.80
2015,06,27,13,59,29.90
2015,06,27,14,00,30.00
2015,06,27,14,01,30.00
2015,06,27,14,02,30.00
2015,06,27,14,03,29.90
2015,06,27,14,04,29.80
2015,06,27,14,05,29.80
2015,06,27,14,06,29.80
2015,06,27,14,07,29.90
2015,06,27,14,08,29.90
2015,06,27,14,09,29.90
2015,06,27,14,10,29.90
2015,06,27,14,11,29.90
2015,06,27,14,12,29.90
2015,06,27,14,13,29.90
2015,06,27,14,14,29.90
2015,06,27,14,15,29.90
2015,06,27,14,16,29.90
2015,06,27,14,17,30.00
2015,06,27,14,18,30.00
2015,06,27,14,19,30.00
2015,06,27,14,20,30.00
2015,06,27,14,21,30.00
2015,06,27,14,22,29.90
2015,06,27,14,23,30.00
2015,06,27,14,24,30.10
2015,06,27,14,25,30.20
2015,06,27,14,26,30.30
2015,06,27,14,27,30.30
2015,06,27,14,28,30.30
2015,06,27,14,29,30.40
2015,06,27,14,30,30.40
2015,06,27,14,31,30.40
2015,06,27,14,32,30.40
2015,06,27,14,33,30.30
2015,06,27,14,34,30.30
2015,06,27,14,35,30.30
2015,06,27,14,36,30.30
2015,06,27,14,37,30.30
2015,06,27,14,38,30.30
2015,06,27,14,39,30.30
2015,06,27,14,40,30.30
2015,06,27,14,41,30.30
2015,06,27,14,42,30.30
2015,06,27,14,43,30.30
2015,06,27,14,44,30.30
2015,06,27,14,45,30.40
2015,06,27,14,46,30.40
2015,06,27,14,47,30.50
2015,06,27,14,48,30.60
2015,06,27,14,49,30.60
2015,06,27,14,50,30.60
2015,06,27,14,51,30.60
2015,06,27,14,52,30.70
2015,06,27,14,53,30.70
2015,06,27,14,54,30.80
2015,06,27,14,55,30.80
2015,06,27,14,56,30.90
2015,06,27,14,57,31.00
2015,06,27,14,58,31.10
2015,06,27,14,59,31.10
2015,06,27,15,00,31.20
2015,06,27,15,01,31.20
2015,06,27,15,02,31.20
2015,06,27,15,03,31.20
2015,06,27,15,04,31.10
2015,06,27,15,05,31.10
2015,06,27,15,06,31.10
2015,06,27,15,07,31.20
2015,06,27,15,08,31.20
2015,06,27,15,09,31.20
2015,06,27,15,10,31.30
2015,06,27,15,11,31.40
2015,06,27,15,12,31.40
2015,06,27,15,13,31.40
2015,06,27,15,14,31.40
2015,06,27,15,15,31.40
2015,06,27,15,16,31.40
2015,06,27,15,17,31.50
2015,06,27,15,18,31.50
2015,06,27,15,19,31.60
2015,06,27,15,20,31.70
2015,06,27,15,21,31.70
2015,06,27,15,22,31.80
2015,06,27,15,23,31.80
2015,06,27,15,24,31.90
2015,06,27,15,25,31.90
2015,06,27,15,26,31.90
2015,06,27,15,27,32.00
2015,06,27,15,28,32.00
2015,06,27,15,29,32.00
2015,06,27,15,30,32.00
2015,06,27,15,31,31.90
2015,06,27,15,32,31.90
2015,06,27,15,33,31.80
2015,06,27,15,34,31.80
2015,06,27,15,35,31.80
2015,06,27,15,36,31.80
2015,06,27,15,37,31.80
2015,06,27,15,38,31.70
2015,06,27,15,39,31.80
2015,06,27,15,40,31.80
2015,06,27,15,41,31.80
2015,06,27,15,42,31.80
2015,06,27,15,43,31.80
2015,06,27,15,44,31.80
2015,06,27,15,45,31.80
2015,06,27,15,46,31.80
2015,06,27,15,47,31.80
2015,06,27,15,48,31.80
2015,06,27,15,49,31.80
2015,06,27,15,50,31.90
2015,06,27,15,51,31.90
2015,06,27,15,52,31.90
2015,06,27,15,53,32.00
2015,06,27,15,54,31.90
2015,06,27,15,55,31.90
2015,06,27,15,56,32.00
2015,06,27,15,57,32.10
2015,06,27,15,58,32.20
2015,06,27,15,59,32.30
2015,06,27,16,00,32.30
2015,06,27,16,01,32.40
2015,06,27,16,02,32.40
2015,06,27,16,03,32.30
2015,06,27,16,04,32.30
2015,06,27,16,05,32.30
2015,06,27,16,06,32.30
2015,06,27,16,07,32.40
2015,06,27,16,08,32.40
2015,06,27,16,09,32.30
2015,06,27,16,10,32.40
2015,06,27,16,11,32.50
2015,06,27,16,12,32.50
2015,06,27,16,13,32.60
2015,06,27,16,14,32.60
2015,06,27,16,15,32.70
2015,06,27,16,16,32.70
2015,06,27,16,17,32.80
2015,06,27,16,18,32.70
2015,06,27,16,19,32.70
2015,06,27,16,20,32.70
2015,06,27,16,21,32.70
2015,06,27,16,22,32.70
2015,06,27,16,23,32.70
2015,06,27,16,24,32.80
2015,06,27,16,25,32.80
2015,06,27,16,26,32.70
2015,06,27,16,27,32.80
2015,06,27,16,28,32.80
2015,06,27,16,29,32.70
2015,06,27,16,30,32.60
2015,06,27,16,31,32.60
2015,06,27,16,32,32.60
2015,06,27,16,33,32.60
2015,06,27,16,34,32.70
2015,06,27,16,35,32.70
2015,06,27,16,36,32.80
2015,06,27,16,37,32.80
2015,06,27,16,38,32.90
2015,06,27,16,39,33.00
2015,06,27,16,40,33.10
2015,06,27,16,41,33.00
2015,06,27,16,42,33.00
2015,06,27,16,43,32.90
2015,06,27,16,44,32.90
2015,06,27,16,45,32.90
2015,06,27,16,46,33.00
2015,06,27,16,47,33.10
2015,06,27,16,48,33.10
2015,06,27,16,49,33.20
2015,06,27,16,50,33.30
2015,06,27,16,51,33.40
2015,06,27,16,52,33.40
2015,06,27,16,53,33.50
2015,06,27,16,54,33.60
2015,06,27,16,55,33.60
2015,06,27,16,56,33.50
2015,06,27,16,57,33.40
2015,06,27,16,58,33.20
2015,06,27,16,59,32.90
2015,06,27,17,00,32.70
2015,06,27,17,01,32.70
2015,06,27,17,02,32.70
2015,06,27,17,03,32.80
2015,06,27,17,04,32.90
2015,06,27,17,05,33.00
2015,06,27,17,06,33.00
2015,06,27,17,07,33.00
2015,06,27,17,08,32.90
2015,06,27,17,09,32.90
2015,06,27,17,10,32.90
2015,06,27,17,11,33.00
2015,06,27,17,12,33.10
2015,06,27,17,13,33.10
2015,06,27,17,14,33.20
2015,06,27,17,15,33.20
2015,06,27,17,16,33.20
2015,06,27,17,17,33.30
2015,06,27,17,18,33.30
2015,06,27,17,19,33.20
2015,06,27,17,20,33.10
2015,06,27,17,21,32.90
2015,06,27,17,22,32.80
2015,06,27,17,23,32.70
2015,06,27,17,24,32.60
2015,06,27,17,25,32.50
2015,06,27,17,26,32.50
2015,06,27,17,27,32.40
2015,06,27,17,28,32.40
2015,06,27,17,29,32.40
2015,06,27,17,30,32.40
2015,06,27,17,31,32.30
2015,06,27,17,32,32.20
2015,06,27,17,33,32.20
2015,06,27,17,34,32.10
2015,06,27,17,35,32.10
2015,06,27,17,36,32.00
2015,06,27,17,37,32.00
2015,06,27,17,38,32.10
2015,06,27,17,39,32.20
2015,06,27,17,40,32.30
2015,06,27,17,41,32.40
2015,06,27,17,42,32.50
2015,06,27,17,43,32.40
2015,06,27,17,44,32.40
2015,06,27,17,45,32.40
2015,06,27,17,46,32.40
2015,06,27,17,47,32.40
2015,06,27,17,48,32.50
2015,06,27,17,49,32.40
2015,06,27,17,50,32.40
2015,06,27,17,51,32.40
2015,06,27,17,52,32.40
2015,06,27,17,53,32.40
2015,06,27,17,54,32.40
2015,06,27,17,55,32.40
2015,06,27,17,56,32.30
2015,06,27,17,57,32.30
2015,06,27,17,58,32.30
2015,06,27,17,59,32.40
2015,06,27,18,00,32.50
2015,06,27,18,01,32.60
2015,06,27,18,02,32.50
2015,06,27,18,03,32.40
2015,06,27,18,04,32.40
2015,06,27,18,05,32.40
2015,06,27,18,06,32.40
2015,06,27,18,07,32.40
2015,06,27,18,08,32.50
2015,06,27,18,09,32.60
2015,06,27,18,10,32.60
2015,06,27,18,11,32.70
2015,06,27,18,12,32.70
2015,06,27,18,13,32.70
2015,06,27,18,14,32.50
2015,06,27,18,15,32.40
2015,06,27,18,16,32.30
2015,06,27,18,17,32.30